{"data":{"norad_id":67579,"intl_designator":"2026-016U","name":"STARLINK-36571","alt_names":[],"object_type":"PAYLOAD","status":"ACTIVE","operator":null,"country":"US","launch_date":"2026-01-25","launch_site_code":"AFWTR","launch_vehicle":null,"mission":null,"orbit_class":"UNKNOWN","rcs_meters":null,"size_class":null,"mass_kg":null,"dimensions":null,"purposes":["comms"],"wikipedia_slug":null,"has_3d_model":false,"image_url":null,"decayed_at":null,"tle_current":{"epoch":"2026-05-25T03:46:20.453088Z","epoch_age_seconds":54830,"freshness":"FRESH","line1":"1 67579U 26016U   26145.15718117  .00012436  00000+0  38681-3 0  9992","line2":"2 67579  97.2845 205.4964 0001143  85.1351 275.0022 15.33451670 18588","mean_motion":15.3345167,"eccentricity":0.0001143,"inclination_deg":97.2845,"raan_deg":205.4964,"arg_perigee_deg":85.1351,"mean_anomaly_deg":275.0022,"bstar":0.00038681,"rev_number":1858,"period_min":93.905796196368,"perigee_km":464.74109894717,"apogee_km":466.30555969845,"semimajor_km":6843.6603293228,"source":"CELESTRAK","updated_at":"2026-05-25T13:38:21.617082Z"}}}